Location: Ku?niki
(51.4449°N, 17.8974°E)
Time: 15:48:38
(UTC+00:00)

MetOp-A - Pass Details

Date: 18 September 2020
Orbit: 820 x 821 km, 98.5° (Epoch: 22 October)

Event Time Altitude Azimuth Distance (km) Brightness Sun altitude
Exits shadow 18:22:26 - 157° (SSE) 2,520 6.3 -14.1°
Reaches altitude 10° 18:22:42 10° 157° (SSE) 2,414 6.2 -14.1°
Maximum altitude 18:28:02 77° 72° (ENE) 849 4.1 -14.9°
Drops below altitude 10° 18:33:25 10° 347° (NNW) 2,430 7.1 -15.7°
Sets 18:35:46 0° 347° (NNW) 3,367 7.9 -16.0°
